Needles, CA

2:18 AM PDT on May 29, 2017 (GMT -0700)
Needles

Weather History for KEED - December, 2013

Change the Weather History Date:

Thursday, December 26, 2013

  Actual Average Record
Temperature  
Mean Temperature 61 °F 52 °F  
Max Temperature 70 °F 63 °F 77 °F (1980)
Min Temperature 52 °F 42 °F 21 °F (1895)
Degree Days  
Heating Degree Days 4    
Cooling Degree Days 0    
Growing Degree Days 11 (Base 50)    
Moisture  
Dew Point 10 °F    
Average Humidity 14    
Maximum Humidity 20    
Minimum Humidity 8    
Precipitation  
Precipitation 0.00 in 0.02 in 0.51 in (1888)
Month to date precipitation 0.39  
Year to date precipitation 4.50  
Sea Level Pressure  
Sea Level Pressure 30.20 in    
Wind  
Wind Speed 12 mph (North)    
Max Wind Speed 21 mph    
Max Gust Speed 32 mph    
Visibility 10 miles    
Events      
T = Trace of Precipitation, MM = Missing Value Source: NWS Daily Summary

Daily Weather History Graph

Daily Weather History Graph

Search for Another Location

Airport or City:

Trip Planner

Search our weather history database for the weather conditions in past years. The results will help you decide how hot, cold, wet, or windy it might be!

Date:

Astronomy

Dec. 26, 2013 Rise Set
Actual Time 6:44 AM PST 4:34 PM PST
Civil Twilight 6:16 AM PST 5:02 PM PST
Nautical Twilight 5:44 AM PST 5:33 PM PST
Astronomical Twilight 5:13 AM PST 6:04 PM PST
Moon 12:27 AM PST (12/26) 12:02 PM PST (12/26)
Length of Visible Light 10h 46m
Length of Day
9h 50m
Last Quarter, 37% of the Moon is Illuminated
Dec 26
Last Quarter
Jan 1
New
Jan 7
First Quarter
Jan 15
Full
Jan 23
Last Quarter

Hourly Weather History & Observations

Time (PST) Temp. Dew Point Humidity Pressure Visibility Wind Dir Wind Speed Gust Speed Precip Events Conditions
12:56 AM 57.0 °F 10.9 °F 16% 30.22 in 10.0 mi North 11.5 mph - N/A   Clear
1:56 AM 55.9 °F 10.9 °F 17% 30.23 in 10.0 mi North 10.4 mph - N/A   Clear
2:56 AM 55.9 °F 10.9 °F 17% 30.23 in 10.0 mi North 12.7 mph - N/A   Clear
3:56 AM 55.0 °F 10.0 °F 17% 30.23 in 10.0 mi North 12.7 mph - N/A   Clear
4:56 AM 54.0 °F 10.0 °F 17% 30.23 in 10.0 mi North 8.1 mph - N/A   Clear
5:56 AM 53.1 °F 10.9 °F 19% 30.25 in 10.0 mi NW 9.2 mph - N/A   Clear
6:56 AM 52.0 °F 12.0 °F 20% 30.26 in 10.0 mi NNW 10.4 mph - N/A   Clear
7:56 AM 55.0 °F 12.9 °F 19% 30.27 in 10.0 mi NNW 6.9 mph - N/A   Clear
8:56 AM 57.9 °F 12.9 °F 17% 30.28 in 10.0 mi North 10.4 mph - N/A   Clear
9:56 AM 63.0 °F 12.0 °F 14% 30.27 in 10.0 mi North 12.7 mph - N/A   Clear
10:56 AM 64.9 °F 10.9 °F 12% 30.23 in 10.0 mi NNE 18.4 mph 26.5 mph N/A   Clear
11:56 AM 68.0 °F 9.0 °F 10% 30.20 in 10.0 mi NNE 19.6 mph - N/A   Partly Cloudy
12:56 PM 69.1 °F 10.0 °F 10% 30.18 in 10.0 mi NNE 18.4 mph 32.2 mph N/A   Clear
1:56 PM 70.0 °F 7.0 °F 9% 30.15 in 10.0 mi NNE 17.3 mph 25.3 mph N/A   Clear
2:56 PM 70.0 °F 5.0 °F 8% 30.14 in 10.0 mi NNE 20.7 mph 25.3 mph N/A   Clear
3:56 PM 68.0 °F 7.0 °F 9% 30.14 in 10.0 mi North 11.5 mph - N/A   Clear
4:56 PM 64.0 °F 9.0 °F 12% 30.14 in 10.0 mi North 11.5 mph - N/A   Clear
5:56 PM 63.0 °F 10.0 °F 13% 30.15 in 10.0 mi North 16.1 mph - N/A   Clear
6:56 PM 62.1 °F 10.0 °F 13% 30.16 in 10.0 mi NNW 11.5 mph - N/A   Clear
7:56 PM 60.1 °F 10.9 °F 14% 30.17 in 10.0 mi NNW 11.5 mph - N/A   Clear
8:56 PM 60.1 °F 10.9 °F 14% 30.17 in 10.0 mi North 15.0 mph - N/A   Clear
9:56 PM 61.0 °F 10.0 °F 13% 30.18 in 10.0 mi North 9.2 mph - N/A   Clear
10:56 PM 60.1 °F 9.0 °F 13% 30.18 in 10.0 mi North 9.2 mph - N/A   Clear
11:56 PM 59.0 °F 10.9 °F 15% 30.18 in 10.0 mi North 9.2 mph - N/A   Clear